Location: Oshawa
(43.9000°N, 78.8670°W)
Time: 03:06:22
(UTC-04:00)

SPOT 5 - Visible Passes

Search period start: 30 March 2015 00:00
Search period end: 09 April 2015 00:00
Orbit: 824 x 826 km, 98.5° (Epoch: 29 March)

Date Brightness Start Highest point End Pass type
(mag) Time Alt. Az. Time Alt. Az. Time Alt. Az.
30 Mar 4.4 20:48:17 17° E 20:50:33 23° ENE 20:54:44 10° NNE visible
30 Mar 3.6 22:29:44 50° SW 22:30:26 54° W 22:35:43 10° NNW visible
31 Mar 4.8 20:28:34 11° E 20:31:24 16° ENE 20:34:43 10° NNE visible
31 Mar 3.1 22:10:01 59° S 22:11:01 79° WSW 22:16:27 10° NNW visible
01 Apr 5.1 20:10:51 10° ENE 20:12:18 11° ENE 20:14:02 10° NE visible
01 Apr 3.0 21:50:19 50° SE 21:51:40 72° ENE 21:57:04 10° N visible
01 Apr 5.4 23:31:46 15° W 23:32:33 16° W 23:35:35 10° NW visible
02 Apr 3.4 21:30:37 35° ESE 21:32:22 49° ENE 21:37:34 10° N visible
02 Apr 4.9 23:12:03 22° WSW 23:12:54 23° W 23:17:04 10° NW visible
03 Apr 3.9 21:10:54 24° ESE 21:13:07 34° ENE 21:17:58 10° N visible
03 Apr 4.4 22:52:21 31° WSW 22:53:21 34° W 22:58:11 10° NNW visible
04 Apr 4.3 20:51:12 16° ESE 20:53:54 24° ENE 20:58:13 10° N visible
04 Apr 3.8 22:32:39 42° SW 22:33:51 50° W 22:39:04 10° NNW visible
05 Apr 4.7 20:31:30 10° E 20:34:45 17° ENE 20:38:15 10° NNE visible
05 Apr 3.2 22:12:57 48° S 22:14:25 73° WSW 22:19:50 10° NNW visible
06 Apr 5.0 20:13:44 10° ENE 20:15:38 12° ENE 20:17:49 10° NNE visible
06 Apr 3.0 21:53:15 43° SSE 21:55:03 78° ENE 22:00:28 10° N visible
06 Apr 5.5 23:34:41 14° WSW 23:36:00 14° W 23:38:43 10° WNW visible
07 Apr 3.3 21:33:32 32° SE 21:35:44 53° ENE 21:40:59 10° N visible
07 Apr 5.0 23:14:59 20° WSW 23:16:20 21° W 23:20:20 10° NW visible
08 Apr 3.8 21:13:50 23° ESE 21:16:28 37° ENE 21:21:24 10° N visible
08 Apr 4.5 22:55:17 27° SW 22:56:45 31° W 23:01:29 10° NNW visible
